User: anonymous   Login
Location: Unspecified
(39.1833°N, 0.0000°E)
Time: 14:59:34
(UTC+00:00)
Language:

UKube-1 - Orbit

View from above orbital plane
View from above orbital plane
View from above satellite
View from above satellite

Ground track
Ground track

The orbit data is extracted from the following two-line orbital elements,

1 40074U 14037F   20022.40009560  .00000166  00000-0  26995-4 0  9998
2 40074  98.4506 202.0003 0003226 223.0517 137.0446 14.84177513299948
Epoch (UTC): 22 January 2020 09:36:08
Eccentricity: 0.0003226
inclination: 98.4506°
perigee height: 614 km
apogee height: 618 km
right ascension of ascending node: 202.0003°
argument of perigee: 223.0517°
revolutions per day: 14.84177513
mean anomaly at epoch: 137.0446°
orbit number at epoch: 29994

The dashed part of the orbit path shows where the satellite is in the earth's shadow,  

DLR